Year,Month,Day,Hour,Minute,Value (Times are PST for temperature in C)
2020,04,15,00,00,9.10
2020,04,15,00,01,9.10
2020,04,15,00,02,9.00
2020,04,15,00,03,9.00
2020,04,15,00,04,9.00
2020,04,15,00,05,9.00
2020,04,15,00,06,9.00
2020,04,15,00,07,9.00
2020,04,15,00,08,9.00
2020,04,15,00,09,9.00
2020,04,15,00,10,9.00
2020,04,15,00,11,8.90
2020,04,15,00,12,8.90
2020,04,15,00,13,8.90
2020,04,15,00,14,8.90
2020,04,15,00,15,8.90
2020,04,15,00,16,8.90
2020,04,15,00,17,8.80
2020,04,15,00,18,8.80
2020,04,15,00,19,8.70
2020,04,15,00,20,8.70
2020,04,15,00,21,8.70
2020,04,15,00,22,8.70
2020,04,15,00,23,8.70
2020,04,15,00,24,8.70
2020,04,15,00,25,8.70
2020,04,15,00,26,8.70
2020,04,15,00,27,8.70
2020,04,15,00,28,8.70
2020,04,15,00,29,8.70
2020,04,15,00,30,8.70
2020,04,15,00,31,8.70
2020,04,15,00,32,8.70
2020,04,15,00,33,8.70
2020,04,15,00,34,8.70
2020,04,15,00,35,8.70
2020,04,15,00,36,8.60
2020,04,15,00,37,8.60
2020,04,15,00,38,8.60
2020,04,15,00,39,8.50
2020,04,15,00,40,8.50
2020,04,15,00,41,8.40
2020,04,15,00,42,8.30
2020,04,15,00,43,8.30
2020,04,15,00,44,8.20
2020,04,15,00,45,8.20
2020,04,15,00,46,8.20
2020,04,15,00,47,8.20
2020,04,15,00,48,8.10
2020,04,15,00,49,8.10
2020,04,15,00,50,8.00
2020,04,15,00,51,8.00
2020,04,15,00,52,7.90
2020,04,15,00,53,7.90
2020,04,15,00,54,7.80
2020,04,15,00,55,7.80
2020,04,15,00,56,7.80
2020,04,15,00,57,7.80
2020,04,15,00,58,7.70
2020,04,15,00,59,7.70
2020,04,15,01,00,7.60
2020,04,15,01,01,7.60
2020,04,15,01,02,7.60
2020,04,15,01,03,7.50
2020,04,15,01,04,7.50
2020,04,15,01,05,7.50
2020,04,15,01,06,7.40
2020,04,15,01,07,7.40
2020,04,15,01,08,7.30
2020,04,15,01,09,7.30
2020,04,15,01,10,7.30
2020,04,15,01,11,7.20
2020,04,15,01,12,7.20
2020,04,15,01,13,7.20
2020,04,15,01,14,7.20
2020,04,15,01,15,7.20
2020,04,15,01,16,7.20
2020,04,15,01,17,7.20
2020,04,15,01,18,7.20
2020,04,15,01,19,7.20
2020,04,15,01,20,7.20
2020,04,15,01,21,7.20
2020,04,15,01,22,7.20
2020,04,15,01,23,7.30
2020,04,15,01,24,7.30
2020,04,15,01,25,7.30
2020,04,15,01,26,7.30
2020,04,15,01,27,7.30
2020,04,15,01,28,7.30
2020,04,15,01,29,7.30
2020,04,15,01,30,7.30
2020,04,15,01,31,7.30
2020,04,15,01,32,7.30
2020,04,15,01,33,7.30
2020,04,15,01,34,7.30
2020,04,15,01,35,7.30
2020,04,15,01,36,7.30
2020,04,15,01,37,7.30
2020,04,15,01,38,7.30
2020,04,15,01,39,7.30
2020,04,15,01,40,7.30
2020,04,15,01,41,7.30
2020,04,15,01,42,7.30
2020,04,15,01,43,7.30
2020,04,15,01,44,7.30
2020,04,15,01,45,7.30
2020,04,15,01,46,7.30
2020,04,15,01,47,7.30
2020,04,15,01,48,7.40
2020,04,15,01,49,7.40
2020,04,15,01,50,7.40
2020,04,15,01,51,7.40
2020,04,15,01,52,7.40
2020,04,15,01,53,7.40
2020,04,15,01,54,7.40
2020,04,15,01,55,7.50
2020,04,15,01,56,7.50
2020,04,15,01,57,7.50
2020,04,15,01,58,7.50
2020,04,15,01,59,7.50
2020,04,15,02,00,7.60
2020,04,15,02,01,7.70
2020,04,15,02,02,7.80
2020,04,15,02,03,7.80
2020,04,15,02,04,7.90
2020,04,15,02,05,7.90
2020,04,15,02,06,7.90
2020,04,15,02,07,7.90
2020,04,15,02,08,7.90
2020,04,15,02,09,7.90
2020,04,15,02,10,7.90
2020,04,15,02,11,7.90
2020,04,15,02,12,7.90
2020,04,15,02,13,7.90
2020,04,15,02,14,7.80
2020,04,15,02,15,7.80
2020,04,15,02,16,7.80
2020,04,15,02,17,7.80
2020,04,15,02,18,7.80
2020,04,15,02,19,7.80
2020,04,15,02,20,7.70
2020,04,15,02,21,7.70
2020,04,15,02,22,7.60
2020,04,15,02,23,7.60
2020,04,15,02,24,7.60
2020,04,15,02,25,7.50
2020,04,15,02,26,7.50
2020,04,15,02,27,7.40
2020,04,15,02,28,7.40
2020,04,15,02,29,7.30
2020,04,15,02,30,7.30
2020,04,15,02,31,7.30
2020,04,15,02,32,7.30
2020,04,15,02,33,7.30
2020,04,15,02,34,7.30
2020,04,15,02,35,7.30
2020,04,15,02,36,7.30
2020,04,15,02,37,7.30
2020,04,15,02,38,7.30
2020,04,15,02,39,7.30
2020,04,15,02,40,7.30
2020,04,15,02,41,7.30
2020,04,15,02,42,7.20
2020,04,15,02,43,7.20
2020,04,15,02,44,7.20
2020,04,15,02,45,7.10
2020,04,15,02,46,7.10
2020,04,15,02,47,7.10
2020,04,15,02,48,7.00
2020,04,15,02,49,7.00
2020,04,15,02,50,7.00
2020,04,15,02,51,7.00
2020,04,15,02,52,6.90
2020,04,15,02,53,6.90
2020,04,15,02,54,6.90
2020,04,15,02,55,6.90
2020,04,15,02,56,6.90
2020,04,15,02,57,6.90
2020,04,15,02,58,6.90
2020,04,15,02,59,6.80
2020,04,15,03,00,6.80
2020,04,15,03,01,6.80
2020,04,15,03,02,6.80
2020,04,15,03,03,6.80
2020,04,15,03,04,6.80
2020,04,15,03,05,6.80
2020,04,15,03,06,6.80
2020,04,15,03,07,6.80
2020,04,15,03,08,6.70
2020,04,15,03,09,6.70
2020,04,15,03,10,6.70
2020,04,15,03,11,6.70
2020,04,15,03,12,6.70
2020,04,15,03,13,6.70
2020,04,15,03,14,6.70
2020,04,15,03,15,6.70
2020,04,15,03,16,6.60
2020,04,15,03,17,6.60
2020,04,15,03,18,6.60
2020,04,15,03,19,6.60
2020,04,15,03,20,6.60
2020,04,15,03,21,6.60
2020,04,15,03,22,6.50
2020,04,15,03,23,6.40
2020,04,15,03,24,6.40
2020,04,15,03,25,6.40
2020,04,15,03,26,6.40
2020,04,15,03,27,6.30
2020,04,15,03,28,6.30
2020,04,15,03,29,6.30
2020,04,15,03,30,6.20
2020,04,15,03,31,6.20
2020,04,15,03,32,6.20
2020,04,15,03,33,6.20
2020,04,15,03,34,6.10
2020,04,15,03,35,6.10
2020,04,15,03,36,6.00
2020,04,15,03,37,6.00
2020,04,15,03,38,5.90
2020,04,15,03,39,5.90
2020,04,15,03,40,5.80
2020,04,15,03,41,5.80
2020,04,15,03,42,5.80
2020,04,15,03,43,5.80
2020,04,15,03,44,5.80
2020,04,15,03,45,5.80
2020,04,15,03,46,5.80
2020,04,15,03,47,5.80
2020,04,15,03,48,5.80
2020,04,15,03,49,5.80
2020,04,15,03,50,5.80
2020,04,15,03,51,5.80
2020,04,15,03,52,5.80
2020,04,15,03,53,5.80
2020,04,15,03,54,5.80
2020,04,15,03,55,5.80
2020,04,15,03,56,5.80
2020,04,15,03,57,5.80
2020,04,15,03,58,5.90
2020,04,15,03,59,5.90
2020,04,15,04,00,5.80
2020,04,15,04,01,5.80
2020,04,15,04,02,5.90
2020,04,15,04,03,5.90
2020,04,15,04,04,5.90
2020,04,15,04,05,5.90
2020,04,15,04,06,6.00
2020,04,15,04,07,6.00
2020,04,15,04,08,6.00
2020,04,15,04,09,6.00
2020,04,15,04,10,6.00
2020,04,15,04,11,6.00
2020,04,15,04,12,6.00
2020,04,15,04,13,6.00
2020,04,15,04,14,5.90
2020,04,15,04,15,6.00
2020,04,15,04,16,6.00
2020,04,15,04,17,5.90
2020,04,15,04,18,5.90
2020,04,15,04,19,6.00
2020,04,15,04,20,6.00
2020,04,15,04,21,6.00
2020,04,15,04,22,6.00
2020,04,15,04,23,6.00
2020,04,15,04,24,6.00
2020,04,15,04,25,6.00
2020,04,15,04,26,6.00
2020,04,15,04,27,6.00
2020,04,15,04,28,6.00
2020,04,15,04,29,6.00
2020,04,15,04,30,6.00
2020,04,15,04,31,6.00
2020,04,15,04,32,6.00
2020,04,15,04,33,6.00
2020,04,15,04,34,6.00
2020,04,15,04,35,6.00
2020,04,15,04,36,6.00
2020,04,15,04,37,6.00
2020,04,15,04,38,6.00
2020,04,15,04,39,6.00
2020,04,15,04,40,6.00
2020,04,15,04,41,6.00
2020,04,15,04,42,6.00
2020,04,15,04,43,6.00
2020,04,15,04,44,6.00
2020,04,15,04,45,6.00
2020,04,15,04,46,6.00
2020,04,15,04,47,6.00
2020,04,15,04,48,6.00
2020,04,15,04,49,6.00
2020,04,15,04,50,5.90
2020,04,15,04,51,5.90
2020,04,15,04,52,5.90
2020,04,15,04,53,5.80
2020,04,15,04,54,5.80
2020,04,15,04,55,5.70
2020,04,15,04,56,5.70
2020,04,15,04,57,5.70
2020,04,15,04,58,5.70
2020,04,15,04,59,5.70
2020,04,15,05,00,5.70
2020,04,15,05,01,5.70
2020,04,15,05,02,5.70
2020,04,15,05,03,5.70
2020,04,15,05,04,5.70
2020,04,15,05,05,5.70
2020,04,15,05,06,5.70
2020,04,15,05,07,5.70
2020,04,15,05,08,5.70
2020,04,15,05,09,5.70
2020,04,15,05,10,5.70
2020,04,15,05,11,5.70
2020,04,15,05,12,5.70
2020,04,15,05,13,5.70
2020,04,15,05,14,5.70
2020,04,15,05,15,5.70
2020,04,15,05,16,5.70
2020,04,15,05,17,5.60
2020,04,15,05,18,5.60
2020,04,15,05,19,5.60
2020,04,15,05,20,5.60
2020,04,15,05,21,5.60
2020,04,15,05,22,5.60
2020,04,15,05,23,5.60
2020,04,15,05,24,5.60
2020,04,15,05,25,5.50
2020,04,15,05,26,5.40
2020,04,15,05,27,5.30
2020,04,15,05,28,5.20
2020,04,15,05,29,5.10
2020,04,15,05,30,5.10
2020,04,15,05,31,5.00
2020,04,15,05,32,4.90
2020,04,15,05,33,4.90
2020,04,15,05,34,4.80
2020,04,15,05,35,4.80
2020,04,15,05,36,4.80
2020,04,15,05,37,4.80
2020,04,15,05,38,4.80
2020,04,15,05,39,4.80
2020,04,15,05,40,4.80
2020,04,15,05,41,4.70
2020,04,15,05,42,4.70
2020,04,15,05,43,4.70
2020,04,15,05,44,4.70
2020,04,15,05,45,4.70
2020,04,15,05,46,4.70
2020,04,15,05,47,4.70
2020,04,15,05,48,4.70
2020,04,15,05,49,4.70
2020,04,15,05,50,4.70
2020,04,15,05,51,4.70
2020,04,15,05,52,4.70
2020,04,15,05,53,4.70
2020,04,15,05,54,4.70
2020,04,15,05,55,4.80
2020,04,15,05,56,4.80
2020,04,15,05,57,4.80
2020,04,15,05,58,4.80
2020,04,15,05,59,4.80
2020,04,15,06,00,4.80
2020,04,15,06,01,4.80
2020,04,15,06,02,4.80
2020,04,15,06,03,4.80
2020,04,15,06,04,4.80
2020,04,15,06,05,4.80
2020,04,15,06,06,4.80
2020,04,15,06,07,4.80
2020,04,15,06,08,4.80
2020,04,15,06,09,4.70
2020,04,15,06,10,4.70
2020,04,15,06,11,4.70
2020,04,15,06,12,4.70
2020,04,15,06,13,4.70
2020,04,15,06,14,4.70
2020,04,15,06,15,4.70
2020,04,15,06,16,4.70
2020,04,15,06,17,4.70
2020,04,15,06,18,4.80
2020,04,15,06,19,4.80
2020,04,15,06,20,4.80
2020,04,15,06,21,4.90
2020,04,15,06,22,4.90
2020,04,15,06,23,4.90
2020,04,15,06,24,4.90
2020,04,15,06,25,4.90
2020,04,15,06,26,4.90
2020,04,15,06,27,4.90
2020,04,15,06,28,4.90
2020,04,15,06,29,4.90
2020,04,15,06,30,5.00
2020,04,15,06,31,5.10
2020,04,15,06,32,5.10
2020,04,15,06,33,5.10
2020,04,15,06,34,5.10
2020,04,15,06,35,5.10
2020,04,15,06,36,5.10
2020,04,15,06,37,4.90
2020,04,15,06,38,4.90
2020,04,15,06,39,4.80
2020,04,15,06,40,4.80
2020,04,15,06,41,4.70
2020,04,15,06,42,4.60
2020,04,15,06,43,4.60
2020,04,15,06,44,4.50
2020,04,15,06,45,4.50
2020,04,15,06,46,4.50
2020,04,15,06,47,4.50
2020,04,15,06,48,4.60
2020,04,15,06,49,4.60
2020,04,15,06,50,4.60
2020,04,15,06,51,4.60
2020,04,15,06,52,4.70
2020,04,15,06,53,4.70
2020,04,15,06,54,4.80
2020,04,15,06,55,4.80
2020,04,15,06,56,4.90
2020,04,15,06,57,4.90
2020,04,15,06,58,4.90
2020,04,15,06,59,4.90
2020,04,15,07,00,4.90
2020,04,15,07,01,4.90
2020,04,15,07,02,4.90
2020,04,15,07,03,4.90
2020,04,15,07,04,4.90
2020,04,15,07,05,4.90
2020,04,15,07,06,4.90
2020,04,15,07,07,4.90
2020,04,15,07,08,5.00
2020,04,15,07,09,5.10
2020,04,15,07,10,5.10
2020,04,15,07,11,5.10
2020,04,15,07,12,5.20
2020,04,15,07,13,5.30
2020,04,15,07,14,5.40
2020,04,15,07,15,5.50
2020,04,15,07,16,5.60
2020,04,15,07,17,5.70
2020,04,15,07,18,5.80
2020,04,15,07,19,5.90
2020,04,15,07,20,6.00
2020,04,15,07,21,6.10
2020,04,15,07,22,6.20
2020,04,15,07,23,6.20
2020,04,15,07,24,6.30
2020,04,15,07,25,6.40
2020,04,15,07,26,6.50
2020,04,15,07,27,6.60
2020,04,15,07,28,6.70
2020,04,15,07,29,6.80
2020,04,15,07,30,6.90
2020,04,15,07,31,7.00
2020,04,15,07,32,7.10
2020,04,15,07,33,7.10
2020,04,15,07,34,7.20
2020,04,15,07,35,7.20
2020,04,15,07,36,7.20
2020,04,15,07,37,7.30
2020,04,15,07,38,7.30
2020,04,15,07,39,7.30
2020,04,15,07,40,7.30
2020,04,15,07,41,7.30
2020,04,15,07,42,7.30
2020,04,15,07,43,7.30
2020,04,15,07,44,7.30
2020,04,15,07,45,7.40
2020,04,15,07,46,7.50
2020,04,15,07,47,7.50
2020,04,15,07,48,7.60
2020,04,15,07,49,7.70
2020,04,15,07,50,7.80
2020,04,15,07,51,7.90
2020,04,15,07,52,7.90
2020,04,15,07,53,8.00
2020,04,15,07,54,8.10
2020,04,15,07,55,8.20
2020,04,15,07,56,8.20
2020,04,15,07,57,8.30
2020,04,15,07,58,8.40
2020,04,15,07,59,8.40
2020,04,15,08,00,8.50
2020,04,15,08,01,8.60
2020,04,15,08,02,8.60
2020,04,15,08,03,8.70
2020,04,15,08,04,8.70
2020,04,15,08,05,8.70
2020,04,15,08,06,8.70
2020,04,15,08,07,8.80
2020,04,15,08,08,8.80
2020,04,15,08,09,8.80
2020,04,15,08,10,8.90
2020,04,15,08,11,8.90
2020,04,15,08,12,8.90
2020,04,15,08,13,8.90
2020,04,15,08,14,9.00
2020,04,15,08,15,9.00
2020,04,15,08,16,9.00
2020,04,15,08,17,9.10
2020,04,15,08,18,9.20
2020,04,15,08,19,9.20
2020,04,15,08,20,9.20
2020,04,15,08,21,9.20
2020,04,15,08,22,9.20
2020,04,15,08,23,9.20
2020,04,15,08,24,9.30
2020,04,15,08,25,9.30
2020,04,15,08,26,9.30
2020,04,15,08,27,9.30
2020,04,15,08,28,9.30
2020,04,15,08,29,9.30
2020,04,15,08,30,9.40
2020,04,15,08,31,9.40
2020,04,15,08,32,9.40
2020,04,15,08,33,9.40
2020,04,15,08,34,9.40
2020,04,15,08,35,9.40
2020,04,15,08,36,9.50
2020,04,15,08,37,9.50
2020,04,15,08,38,9.60
2020,04,15,08,39,9.70
2020,04,15,08,40,9.70
2020,04,15,08,41,9.80
2020,04,15,08,42,9.90
2020,04,15,08,43,9.90
2020,04,15,08,44,10.10
2020,04,15,08,45,10.10
2020,04,15,08,46,10.20
2020,04,15,08,47,10.20
2020,04,15,08,48,10.30
2020,04,15,08,49,10.40
2020,04,15,08,50,10.40
2020,04,15,08,51,10.50
2020,04,15,08,52,10.60
2020,04,15,08,53,10.70
2020,04,15,08,54,10.70
2020,04,15,08,55,10.60
2020,04,15,08,56,10.60
2020,04,15,08,57,10.60
2020,04,15,08,58,10.70
2020,04,15,08,59,10.70
2020,04,15,09,00,10.80
2020,04,15,09,01,10.80
2020,04,15,09,02,10.80
2020,04,15,09,03,10.90
2020,04,15,09,04,10.90
2020,04,15,09,05,11.00
2020,04,15,09,06,11.10
2020,04,15,09,07,11.10
2020,04,15,09,08,11.10
2020,04,15,09,09,11.10
2020,04,15,09,10,11.10
2020,04,15,09,11,11.10
2020,04,15,09,12,11.10
2020,04,15,09,13,11.10
2020,04,15,09,14,11.10
2020,04,15,09,15,11.20
2020,04,15,09,16,11.20
2020,04,15,09,17,11.20
2020,04,15,09,18,11.20
2020,04,15,09,19,11.30
2020,04,15,09,20,11.40
2020,04,15,09,21,11.40
2020,04,15,09,22,11.60
2020,04,15,09,23,11.70
2020,04,15,09,24,11.80
2020,04,15,09,25,11.80
2020,04,15,09,26,12.00
2020,04,15,09,27,12.00
2020,04,15,09,28,12.10
2020,04,15,09,29,12.20
2020,04,15,09,30,12.30
2020,04,15,09,31,12.30
2020,04,15,09,32,12.30
2020,04,15,09,33,12.40
2020,04,15,09,34,12.50
2020,04,15,09,35,12.50
2020,04,15,09,36,12.50
2020,04,15,09,37,12.50
2020,04,15,09,38,12.50
2020,04,15,09,39,12.60
2020,04,15,09,40,12.70
2020,04,15,09,41,12.80
2020,04,15,09,42,12.70
2020,04,15,09,43,12.70
2020,04,15,09,44,12.60
2020,04,15,09,45,12.60
2020,04,15,09,46,12.60
2020,04,15,09,47,12.60
2020,04,15,09,48,12.60
2020,04,15,09,49,12.60
2020,04,15,09,50,12.50
2020,04,15,09,51,12.50
2020,04,15,09,52,12.60
2020,04,15,09,53,12.60
2020,04,15,09,54,12.70
2020,04,15,09,55,12.90
2020,04,15,09,56,13.00
2020,04,15,09,57,13.10
2020,04,15,09,58,13.20
2020,04,15,09,59,13.30
2020,04,15,10,00,13.30
2020,04,15,10,01,13.30
2020,04,15,10,02,13.20
2020,04,15,10,03,13.20
2020,04,15,10,04,13.10
2020,04,15,10,05,13.10
2020,04,15,10,06,13.00
2020,04,15,10,07,13.10
2020,04,15,10,08,13.10
2020,04,15,10,09,13.10
2020,04,15,10,10,13.20
2020,04,15,10,11,13.20
2020,04,15,10,12,13.30
2020,04,15,10,13,13.30
2020,04,15,10,14,13.50
2020,04,15,10,15,13.70
2020,04,15,10,16,13.70
2020,04,15,10,17,13.80
2020,04,15,10,18,13.80
2020,04,15,10,19,13.80
2020,04,15,10,20,13.80
2020,04,15,10,21,13.80
2020,04,15,10,22,13.70
2020,04,15,10,23,13.70
2020,04,15,10,24,13.70
2020,04,15,10,25,13.70
2020,04,15,10,26,13.70
2020,04,15,10,27,13.70
2020,04,15,10,28,13.70
2020,04,15,10,29,13.70
2020,04,15,10,30,13.70
2020,04,15,10,31,13.70
2020,04,15,10,32,13.70
2020,04,15,10,33,13.70
2020,04,15,10,34,13.80
2020,04,15,10,35,13.70
2020,04,15,10,36,13.70
2020,04,15,10,37,13.70
2020,04,15,10,38,13.70
2020,04,15,10,39,13.60
2020,04,15,10,40,13.60
2020,04,15,10,41,13.60
2020,04,15,10,42,13.70
2020,04,15,10,43,13.70
2020,04,15,10,44,13.70
2020,04,15,10,45,13.70
2020,04,15,10,46,13.80
2020,04,15,10,47,13.90
2020,04,15,10,48,14.00
2020,04,15,10,49,14.00
2020,04,15,10,50,14.00
2020,04,15,10,51,14.00
2020,04,15,10,52,13.90
2020,04,15,10,53,14.00
2020,04,15,10,54,14.00
2020,04,15,10,55,14.10
2020,04,15,10,56,14.20
2020,04,15,10,57,14.30
2020,04,15,10,58,14.40
2020,04,15,10,59,14.50
2020,04,15,11,00,14.50
2020,04,15,11,01,14.60
2020,04,15,11,02,14.30
2020,04,15,11,03,14.20
2020,04,15,11,04,13.90
2020,04,15,11,05,13.70
2020,04,15,11,06,13.30
2020,04,15,11,07,12.90
2020,04,15,11,08,12.70
2020,04,15,11,09,12.40
2020,04,15,11,10,12.10
2020,04,15,11,11,11.80
2020,04,15,11,12,11.70
2020,04,15,11,13,11.60
2020,04,15,11,14,11.60
2020,04,15,11,15,11.50
2020,04,15,11,16,11.40
2020,04,15,11,17,11.40
2020,04,15,11,18,11.40
2020,04,15,11,19,11.40
2020,04,15,11,20,11.40
2020,04,15,11,21,11.40
2020,04,15,11,22,11.30
2020,04,15,11,23,11.30
2020,04,15,11,24,11.20
2020,04,15,11,25,11.20
2020,04,15,11,26,11.20
2020,04,15,11,27,11.20
2020,04,15,11,28,11.20
2020,04,15,11,29,11.30
2020,04,15,11,30,11.40
2020,04,15,11,31,11.40
2020,04,15,11,32,11.40
2020,04,15,11,33,11.30
2020,04,15,11,34,11.20
2020,04,15,11,35,11.20
2020,04,15,11,36,11.30
2020,04,15,11,37,11.30
2020,04,15,11,38,11.20
2020,04,15,11,39,11.30
2020,04,15,11,40,11.30
2020,04,15,11,41,11.30
2020,04,15,11,42,11.30
2020,04,15,11,43,11.40
2020,04,15,11,44,11.50
2020,04,15,11,45,11.50
2020,04,15,11,46,11.40
2020,04,15,11,47,11.50
2020,04,15,11,48,11.60
2020,04,15,11,49,11.50
2020,04,15,11,50,11.60
2020,04,15,11,51,11.70
2020,04,15,11,52,11.80
2020,04,15,11,53,11.90
2020,04,15,11,54,11.90
2020,04,15,11,55,12.00
2020,04,15,11,56,12.00
2020,04,15,11,57,12.00
2020,04,15,11,58,12.00
2020,04,15,11,59,12.00
2020,04,15,12,00,12.00
2020,04,15,12,01,12.00
2020,04,15,12,02,12.10
2020,04,15,12,03,12.10
2020,04,15,12,04,12.20
2020,04,15,12,05,12.30
2020,04,15,12,06,12.30
2020,04,15,12,07,12.30
2020,04,15,12,08,12.30
2020,04,15,12,09,12.40
2020,04,15,12,10,12.50
2020,04,15,12,11,12.50
2020,04,15,12,12,12.60
2020,04,15,12,13,12.50
2020,04,15,12,14,12.50
2020,04,15,12,15,12.50
2020,04,15,12,16,12.40
2020,04,15,12,17,12.30
2020,04,15,12,18,12.30
2020,04,15,12,19,12.30
2020,04,15,12,20,12.30
2020,04,15,12,21,12.20
2020,04,15,12,22,12.10
2020,04,15,12,23,12.10
2020,04,15,12,24,12.10
2020,04,15,12,25,12.10
2020,04,15,12,26,12.00
2020,04,15,12,27,12.00
2020,04,15,12,28,12.00
2020,04,15,12,29,12.00
2020,04,15,12,30,12.00
2020,04,15,12,31,11.90
2020,04,15,12,32,11.80
2020,04,15,12,33,11.80
2020,04,15,12,34,11.80
2020,04,15,12,35,11.80
2020,04,15,12,36,11.80
2020,04,15,12,37,11.90
2020,04,15,12,38,11.90
2020,04,15,12,39,11.90
2020,04,15,12,40,11.90
2020,04,15,12,41,11.90
2020,04,15,12,42,11.90
2020,04,15,12,43,11.90
2020,04,15,12,44,12.00
2020,04,15,12,45,12.00
2020,04,15,12,46,11.90
2020,04,15,12,47,12.00
2020,04,15,12,48,12.20
2020,04,15,12,49,12.30
2020,04,15,12,50,12.30
2020,04,15,12,51,12.50
2020,04,15,12,52,12.50
2020,04,15,12,53,12.60
2020,04,15,12,54,12.70
2020,04,15,12,55,12.80
2020,04,15,12,56,12.90
2020,04,15,12,57,13.00
2020,04,15,12,58,13.00
2020,04,15,12,59,13.10
2020,04,15,13,00,13.20
2020,04,15,13,01,13.20
2020,04,15,13,02,13.30
2020,04,15,13,03,13.30
2020,04,15,13,04,13.30
2020,04,15,13,05,13.30
2020,04,15,13,06,13.20
2020,04,15,13,07,13.10
2020,04,15,13,08,13.20
2020,04,15,13,09,13.30
2020,04,15,13,10,13.30
2020,04,15,13,11,13.30
2020,04,15,13,12,13.40
2020,04,15,13,13,13.50
2020,04,15,13,14,13.50
2020,04,15,13,15,13.50
2020,04,15,13,16,13.50
2020,04,15,13,17,13.50
2020,04,15,13,18,13.50
2020,04,15,13,19,13.60
2020,04,15,13,20,13.70
2020,04,15,13,21,13.80
2020,04,15,13,22,13.90
2020,04,15,13,23,14.00
2020,04,15,13,24,14.10
2020,04,15,13,25,14.20
2020,04,15,13,26,14.30
2020,04,15,13,27,14.30
2020,04,15,13,28,14.20
2020,04,15,13,29,14.10
2020,04,15,13,30,14.20
2020,04,15,13,31,14.20
2020,04,15,13,32,14.30
2020,04,15,13,33,14.40
2020,04,15,13,34,14.50
2020,04,15,13,35,14.50
2020,04,15,13,36,14.30
2020,04,15,13,37,14.10
2020,04,15,13,38,14.00
2020,04,15,13,39,14.00
2020,04,15,13,40,13.90
2020,04,15,13,41,13.90
2020,04,15,13,42,13.90
2020,04,15,13,43,13.90
2020,04,15,13,44,13.80
2020,04,15,13,45,13.90
2020,04,15,13,46,13.80
2020,04,15,13,47,13.80
2020,04,15,13,48,13.90
2020,04,15,13,49,13.90
2020,04,15,13,50,13.80
2020,04,15,13,51,13.80
2020,04,15,13,52,13.70
2020,04,15,13,53,13.60
2020,04,15,13,54,13.70
2020,04,15,13,55,13.70
2020,04,15,13,56,13.70
2020,04,15,13,57,13.70
2020,04,15,13,58,13.80
2020,04,15,13,59,13.80
2020,04,15,14,00,13.90
2020,04,15,14,01,13.90
2020,04,15,14,02,13.90
2020,04,15,14,03,14.00
2020,04,15,14,04,14.00
2020,04,15,14,05,14.10
2020,04,15,14,06,14.20
2020,04,15,14,07,14.20
2020,04,15,14,08,14.20
2020,04,15,14,09,14.20
2020,04,15,14,10,14.20
2020,04,15,14,11,14.20
2020,04,15,14,12,14.10
2020,04,15,14,13,14.10
2020,04,15,14,14,14.00
2020,04,15,14,15,14.00
2020,04,15,14,16,13.90
2020,04,15,14,17,13.90
2020,04,15,14,18,14.10
2020,04,15,14,19,14.20
2020,04,15,14,20,14.30
2020,04,15,14,21,14.40
2020,04,15,14,22,14.50
2020,04,15,14,23,14.60
2020,04,15,14,24,14.70
2020,04,15,14,25,14.60
2020,04,15,14,26,14.60
2020,04,15,14,27,14.70
2020,04,15,14,28,14.70
2020,04,15,14,29,14.70
2020,04,15,14,30,14.70
2020,04,15,14,31,14.80
2020,04,15,14,32,14.80
2020,04,15,14,33,14.80
2020,04,15,14,34,14.80
2020,04,15,14,35,14.80
2020,04,15,14,36,14.80
2020,04,15,14,37,14.80
2020,04,15,14,38,15.00
2020,04,15,14,39,15.10
2020,04,15,14,40,15.10
2020,04,15,14,41,15.10
2020,04,15,14,42,15.20
2020,04,15,14,43,15.30
2020,04,15,14,44,15.30
2020,04,15,14,45,15.30
2020,04,15,14,46,15.30
2020,04,15,14,47,15.30
2020,04,15,14,48,15.30
2020,04,15,14,49,15.30
2020,04,15,14,50,15.30
2020,04,15,14,51,15.40
2020,04,15,14,52,15.50
2020,04,15,14,53,15.60
2020,04,15,14,54,15.80
2020,04,15,14,55,15.80
2020,04,15,14,56,15.80
2020,04,15,14,57,15.80
2020,04,15,14,58,15.90
2020,04,15,14,59,15.90
2020,04,15,15,00,15.90
2020,04,15,15,01,15.90
2020,04,15,15,02,15.80
2020,04,15,15,03,15.60
2020,04,15,15,04,15.50
2020,04,15,15,05,15.40
2020,04,15,15,06,15.30
2020,04,15,15,07,15.30
2020,04,15,15,08,15.30
2020,04,15,15,09,15.30
2020,04,15,15,10,15.30
2020,04,15,15,11,15.20
2020,04,15,15,12,15.10
2020,04,15,15,13,15.10
2020,04,15,15,14,15.20
2020,04,15,15,15,15.30
2020,04,15,15,16,15.30
2020,04,15,15,17,15.40
2020,04,15,15,18,15.40
2020,04,15,15,19,15.40
2020,04,15,15,20,15.40
2020,04,15,15,21,15.40
2020,04,15,15,22,15.40
2020,04,15,15,23,15.30
2020,04,15,15,24,15.30
2020,04,15,15,25,15.30
2020,04,15,15,26,15.40
2020,04,15,15,27,15.40
2020,04,15,15,28,15.30
2020,04,15,15,29,15.40
2020,04,15,15,30,15.50
2020,04,15,15,31,15.50
2020,04,15,15,32,15.50
2020,04,15,15,33,15.60
2020,04,15,15,34,15.80
2020,04,15,15,35,16.00
2020,04,15,15,36,16.10
2020,04,15,15,37,16.10
2020,04,15,15,38,16.20
2020,04,15,15,39,16.30
2020,04,15,15,40,16.40
2020,04,15,15,41,16.40
2020,04,15,15,42,16.40
2020,04,15,15,43,16.50
2020,04,15,15,44,16.60
2020,04,15,15,45,16.60
2020,04,15,15,46,16.60
2020,04,15,15,47,16.60
2020,04,15,15,48,16.60
2020,04,15,15,49,16.70
2020,04,15,15,50,16.70
2020,04,15,15,51,16.70
2020,04,15,15,52,16.70
2020,04,15,15,53,16.80
2020,04,15,15,54,16.70
2020,04,15,15,55,16.80
2020,04,15,15,56,16.70
2020,04,15,15,57,16.60
2020,04,15,15,58,16.40
2020,04,15,15,59,16.30
2020,04,15,16,00,16.40
2020,04,15,16,01,16.40
2020,04,15,16,02,16.30
2020,04,15,16,03,16.40
2020,04,15,16,04,16.40
2020,04,15,16,05,16.40
2020,04,15,16,06,16.40
2020,04,15,16,07,16.40
2020,04,15,16,08,16.40
2020,04,15,16,09,16.40
2020,04,15,16,10,16.50
2020,04,15,16,11,16.60
2020,04,15,16,12,16.70
2020,04,15,16,13,16.70
2020,04,15,16,14,16.70
2020,04,15,16,15,16.70
2020,04,15,16,16,16.60
2020,04,15,16,17,16.60
2020,04,15,16,18,16.60
2020,04,15,16,19,16.60
2020,04,15,16,20,16.70
2020,04,15,16,21,16.80
2020,04,15,16,22,16.90
2020,04,15,16,23,17.00
2020,04,15,16,24,17.00
2020,04,15,16,25,17.00
2020,04,15,16,26,17.00
2020,04,15,16,27,17.00
2020,04,15,16,28,17.00
2020,04,15,16,29,17.00
2020,04,15,16,30,17.20
2020,04,15,16,31,17.30
2020,04,15,16,32,17.30
2020,04,15,16,33,17.30
2020,04,15,16,34,17.40
2020,04,15,16,35,17.50
2020,04,15,16,36,17.60
2020,04,15,16,37,17.60
2020,04,15,16,38,17.70
2020,04,15,16,39,17.80
2020,04,15,16,40,17.90
2020,04,15,16,41,18.10
2020,04,15,16,42,18.20
2020,04,15,16,43,18.30
2020,04,15,16,44,18.40
2020,04,15,16,45,18.50
2020,04,15,16,46,18.50
2020,04,15,16,47,18.60
2020,04,15,16,48,18.80
2020,04,15,16,49,18.90
2020,04,15,16,50,18.90
2020,04,15,16,51,19.10
2020,04,15,16,52,19.10
2020,04,15,16,53,19.10
2020,04,15,16,54,19.20
2020,04,15,16,55,19.30
2020,04,15,16,56,19.30
2020,04,15,16,57,19.30
2020,04,15,16,58,19.30
2020,04,15,16,59,19.20
2020,04,15,17,00,19.20
2020,04,15,17,01,19.20
2020,04,15,17,02,19.20
2020,04,15,17,03,19.20
2020,04,15,17,04,19.30
2020,04,15,17,05,19.30
2020,04,15,17,06,19.20
2020,04,15,17,07,19.20
2020,04,15,17,08,19.10
2020,04,15,17,09,19.10
2020,04,15,17,10,19.10
2020,04,15,17,11,18.90
2020,04,15,17,12,18.90
2020,04,15,17,13,18.90
2020,04,15,17,14,18.80
2020,04,15,17,15,18.80
2020,04,15,17,16,18.80
2020,04,15,17,17,18.90
2020,04,15,17,18,18.90
2020,04,15,17,19,18.90
2020,04,15,17,20,19.00
2020,04,15,17,21,19.10
2020,04,15,17,22,19.10
2020,04,15,17,23,19.30
2020,04,15,17,24,19.40
2020,04,15,17,25,19.50
2020,04,15,17,26,19.60
2020,04,15,17,27,19.70
2020,04,15,17,28,19.80
2020,04,15,17,29,19.90
2020,04,15,17,30,19.80
2020,04,15,17,31,19.80
2020,04,15,17,32,19.80
2020,04,15,17,33,19.80
2020,04,15,17,34,19.70
2020,04,15,17,35,19.60
2020,04,15,17,36,19.60
2020,04,15,17,37,19.60
2020,04,15,17,38,19.60
2020,04,15,17,39,19.50
2020,04,15,17,40,19.50
2020,04,15,17,41,19.50
2020,04,15,17,42,19.50